[Date Prev][Date Next][Thread Prev][Thread Next] - [Date Index][Thread Index][Author Index]

MIR Keps 5-28




Hope EVERYONE has a VERY safe weekend ~ MIREX ~

MIR
1 16609U 86017A   99148.07325199  .00022313  00000-0  16890-3 0  5276
2 16609  51.6606  86.9566 0006738 157.5816 202.6067 15.71660300758603

----
Via the sarex mailing list at AMSAT.ORG courtesy of AMSAT-NA.
To unsubscribe, send "unsubscribe sarex" to Majordomo@amsat.org



AMSAT Top AMSAT Home